Wind_Speed
8 7 5 5 3 9 14 13 14 17 18 16 18 19 19 18 15 14 12 6 13 12 16 13 13 9 12 10 6 2 6 9 9 10 7 11 7 5 2 2 3 3 2 5 11
11 9 5 3 1 2 8 8 11 13 13 14 16 18 20 18 12 14 11 18 17 15 13 12 13 14 11 11 7 7 9 9 6 7 6 12 6 8 5 7 6 5 3 4 6
13 11 9 7 3 4 6 9 12 12 11 11 12 15 22 13 8 11 19 17 16 15 12 12 11 16 10 11 9 6 5 3 4 3 5 9 7 4 4 5 1 2 4 6 7
17 17 12 2 6 7 7 8 9 12 13 10 7 15 18 13 7 8 17 16 15 15 16 14 14 16 12 12 10 7 1 3 3 3 3 8 4 5 5 3 4 4 4 5 7
24 17 14 14 13 11 10 10 11 12 12 9 7 14 18 5 8 7 16 13 14 16 17 13 18 16 12 14 10 4 6 4 3 4 3 1 4 3 5 4 3 5 7 5 7
26 23 18 14 17 15 10 11 7 10 12 7 10 21 15 11 3 8 13 12 13 16 15 12 13 9 8 8 8 6 8 7 2 3 2 3 3 3 4 6 3 1 3 6 7
16 22 27 19 13 15 15 16 15 12 18 23 22 12 11 3 2 8 12 10 14 13 14 9 5 8 11 8 8 14 8 6 2 1 1 3 6 8 5 6 6 3 3 6 8
14 15 13 15 12 11 8 7 7 6 7 7 8 8 3 4 3 8 10 11 14 16 14 14 7 6 2 12 7 6 4 6 4 2 2 3 3 5 7 8 8 7 7 8 10
5 5 4 4 6 6 3 4 4 5 6 7 7 7 5 5 4 7 10 10 12 14 12 12 5 4 7 9 7 6 8 12 5 1 2 6 4 4 8 8 9 11 11 9 8
5 5 4 5 7 7 7 6 9 8 5 4 3 5 4 4 6 9 13 12 7 12 10 5 3 6 6 10 10 12 8 4 6 3 4 7 12 7 9 10 13 13 10 8 7
5 6 3 3 3 1 2 0 2 4 5 3 3 9 9 8 9 8 13 10 10 9 8 6 3 8 12 1 3 3 7 6 4 2 4 7 11 12 12 13 14 11 6 4 8
6 7 4 3 4 4 5 2 2 8 10 10 7 9 6 5 9 8 10 5 7 7 3 5 5 5 2 1 5 4 5 4 5 2 3 8 14 14 11 8 5 4 4 6 8
4 6 6 7 6 7 8 10 5 3 4 6 9 5 3 6 6 7 5 5 4 4 1 4 5 1 2 4 6 4 3 3 2 3 4 9 13 7 4 4 3 3 3 7 9
3 1 2 3 4 5 2 2 0 2 2 7 5 5 5 4 6 7 7 3 3 7 8 7 2 2 3 4 6 4 3 3 2 3 3 3 6 7 8 6 5 6 7 8 9
5 3 2 3 2 4 4 3 2 2 3 6 4 3 6 4 8 7 7 6 6 6 2 2 3 3 3 4 6 5 1 3 2 2 4 5 3 3 3 6 8 9 10 10 9
9 4 1 4 4 4 3 2 1 2 4 2 3 4 3 8 4 3 2 8 6 7 13 5 3 4 3 5 5 7 2 1 1 1 3 2 3 4 3 1 4 11 11 11 11
10 10 6 1 3 3 2 1 1 3 2 3 4 4 5 5 4 2 2 5 1 4 1 4 3 3 1 2 2 2 0 0 1 2 2 3 3 7 3 2 1 11 14 13 12
3 15 9 2 1 1 0 2 4 1 2 2 2 3 4 3 3 2 4 4 3 1 3 5 2 2 2 2 2 2 2 2 4 2 2 4 6 2 4 2 3 6 12 13 12
3 5 23 5 1 3 1 4 3 4 3 2 3 1 3 2 1 2 2 2 3 4 2 4 3 3 3 1 3 4 4 2 2 1 3 4 5 6 2 3 4 6 10 12 12
4 2 20 6 4 8 3 4 2 3 4 3 3 3 2 3 2 3 4 2 2 3 4 1 3 0 2 2 2 3 1 1 1 3 4 5 4 2 2 1 4 6 11 13 13
5 1 19 7 7 3 4 4 4 2 2 4 4 2 3 2 2 2 3 3 2 2 2 2 2 3 1 5 0 3 2 2 3 3 3 6 2 2 4 0 3 6 10 14 16
6 3 19 6 2 4 4 3 1 2 2 2 2 4 4 3 2 2 1 4 3 3 2 3 3 2 2 2 2 3 3 6 3 4 1 3 6 3 4 4 3 3 4 10 13
3 4 16 6 4 5 3 4 5 4 5 4 2 4 1 2 0 1 2 2 2 2 2 1 2 2 3 3 3 5 9 7 2 1 7 5 1 4 7 6 4 7 13 12 11
4 2 7 11 7 7 4 3 3 3 3 3 2 1 0 1 3 1 1 1 3 2 2 2 3 7 4 3 3 4 9 11 10 4 7 12 14 9 6 6 14 14 10 8 11
7 5 4 3 7 5 2 1 2 1 1 1 2 3 2 0 1 1 1 2 1 1 1 3 4 2 9 8 6 9 10 14 16 18 9 15 14 13 14 11 7 11 9 11 13
4 1 3 4 5 2 2 1 1 3 2 2 2 1 0 1 2 1 2 4 1 4 3 2 2 2 5 2 7 12 15 16 19 20 18 21 22 10 8 10 11 10 11 12 13
6 4 1 2 1 4 4 2 1 2 1 1 1 1 1 3 3 4 5 4 3 2 6 3 2 1 4 2 7 12 12 18 12 11 10 14 10 9 6 6 6 8 11 14 16
Wind_Direction
17 11 348 333 269 241 233 233 222 215 219 218 211 214 217 217 228 233 223 223 207 200 190 173 171 181 179 192 187 218 247 227 210 215 143 161 163 153 171 153 167 127 67 124 166
20 1 6 336 259 187 197 194 192 202 216 216 211 204 206 208 223 225 219 217 201 189 181 176 177 173 183 189 190 220 240 237 24 42 158 169 188 159 193 188 189 171 146 180 193
13 357 320 335 222 172 167 177 208 196 205 207 197 193 198 182 206 240 221 205 193 187 176 184 180 178 185 180 187 184 260 98 76 70 144 157 162 177 211 212 274 200 180 193 201
13 1 351 54 115 130 137 145 162 166 159 141 182 182 175 151 214 174 205 193 190 184 183 170 178 189 191 192 176 182 87 342 145 64 156 173 151 205 226 64 120 128 180 200 207
26 45 53 100 110 116 118 136 170 183 137 117 22 184 153 222 250 225 187 192 184 179 181 178 178 191 202 185 176 201 136 107 92 82 74 317 218 282 232 202 221 232 237 220 218
45 50 53 86 109 103 113 110 107 120 111 23 142 135 168 242 232 185 184 179 176 175 178 178 183 203 177 164 209 125 133 124 86 68 47 283 241 304 180 183 158 139 214 218 219
56 58 67 94 87 87 95 97 97 89 60 103 107 170 239 273 157 154 166 167 171 177 177 189 205 200 158 141 129 134 123 135 115 2 257 311 242 234 181 175 175 183 239 246 239
80 72 83 86 76 87 95 89 89 100 143 207 196 204 273 122 130 119 144 159 168 174 174 184 157 151 155 124 122 162 173 191 124 272 199 282 264 156 182 189 214 231 274 273 249
58 68 72 55 2 359 84 112 106 113 144 160 188 221 87 104 111 130 150 146 156 162 171 166 133 146 144 174 151 188 203 217 153 110 283 232 289 132 193 210 237 255 278 273 244
22 23 23 54 94 97 92 108 95 93 108 134 178 190 127 135 134 124 134 133 136 136 129 145 198 178 195 190 187 187 207 213 222 108 240 242 259 248 210 232 262 275 277 273 223
342 314 321 103 153 116 14 332 195 132 57 51 75 94 105 117 105 123 123 113 126 158 163 169 192 187 187 27 32 123 206 211 114 105 289 253 271 271 259 250 266 262 264 233 184
25 26 6 270 260 276 331 328 86 131 78 58 60 91 110 127 118 85 104 154 169 145 140 172 157 57 80 158 116 135 178 160 121 131 287 290 279 269 269 258 263 241 204 170 168
27 47 50 48 72 89 116 121 96 69 112 52 49 39 58 65 57 24 56 103 102 106 139 166 91 125 208 137 140 66 298 96 6 302 238 294 266 201 192 198 175 177 147 161 167
351 287 8 52 77 117 141 160 9 328 111 27 6 18 1 122 61 48 81 92 61 97 78 74 78 118 129 93 331 174 43 68 8 328 298 342 293 208 172 190 206 182 174 158 157
346 265 241 215 231 226 244 259 258 149 94 356 5 13 36 78 134 33 59 54 79 85 223 75 99 81 96 17 330 72 64 52 19 324 322 170 253 246 107 219 211 198 181 171 168
33 8 246 258 256 266 274 43 171 260 64 49 339 347 137 54 62 94 81 79 110 72 67 89 80 28 62 60 50 130 166 105 127 286 237 82 240 276 196 68 176 188 183 178 174
59 42 28 341 272 284 282 93 14 47 264 30 18 8 82 41 71 38 88 85 75 93 45 127 53 89 22 144 148 237 212 157 273 199 284 176 242 265 153 153 235 190 187 186 184
82 42 25 12 350 317 145 201 59 312 39 117 300 79 70 356 64 78 113 117 71 291 151 160 205 176 30 336 332 171 271 273 260 253 23 176 236 249 111 226 199 215 193 189 190
275 313 14 20 49 132 231 49 39 15 355 336 188 114 103 94 24 134 71 92 49 5 283 161 131 131 50 326 310 139 216 24 298 191 260 226 245 165 16 185 202 197 191 198 200
43 346 2 10 82 121 83 84 67 16 334 286 358 330 144 100 189 205 176 50 77 15 336 79 117 42 94 297 77 312 35 191 197 263 253 218 263 286 31 247 201 202 211 211 211
58 157 358 21 78 51 83 91 104 55 17 2 33 49 49 81 4 95 76 100 39 37 348 331 279 108 213 199 242 151 214 238 301 278 287 304 98 95 182 150 228 215 215 220 223
38 46 353 62 46 61 62 51 48 66 66 94 47 45 43 46 79 86 81 40 20 351 3 31 327 161 57 87 333 300 278 245 249 168 272 298 281 117 58 33 357 317 287 259 244
53 24 21 78 61 65 81 79 52 23 23 8 54 13 11 103 157 91 110 65 16 342 350 63 207 207 184 179 197 232 204 228 201 312 238 269 241 128 119 105 69 325 313 301 254
351 19 13 48 69 102 108 62 95 59 68 27 44 334 336 72 25 117 125 84 7 356 356 322 273 260 278 36 112 196 206 211 205 201 238 229 266 245 262 314 332 338 307 290 281
40 39 13 20 46 66 104 88 106 95 81 44 109 58 19 322 132 154 84 160 169 159 318 301 282 308 296 284 252 264 237 213 214 225 241 266 276 295 327 338 343 323 333 323 314
51 59 49 48 349 337 344 52 127 131 327 56 354 73 280 292 346 44 194 215 257 181 218 181 261 331 278 275 259 257 254 250 242 247 258 271 281 329 15 334 331 349 351 350 344
46 56 144 138 67 308 28 56 1 310 37 61 71 255 280 40 359 324 294 290 316 280 210 230 253 276 263 334 306 270 252 237 231 242 255 256 275 2 1 17 40 33 21 15 6
Height
1476 1474 1472 1471 1471 1471 1472 1473 1474 1476 1478 1480 1483 1486 1489 1492 1495 1495 1497 1499 1499 1499 1502 1505 1508 1512 1516 1517 1518 1519 1515 1507 1501 1500 1502 1513 1514 1519 1520 1522 1524 1525 1527 1529 1530
1477 1474 1472 1471 1470 1470 1470 1472 1474 1476 1478 1480 1482 1485 1488 1492 1495 1495 1496 1495 1497 1499 1502 1505 1509 1512 1515 1515 1517 1516 1511 1502 1502 1506 1506 1512 1513 1518 1520 1521 1522 1525 1526 1527 1528
1477 1474 1470 1468 1468 1469 1471 1473 1475 1476 1478 1480 1482 1485 1488 1492 1497 1492 1491 1493 1495 1498 1502 1505 1509 1512 1512 1513 1514 1512 1510 1509 1512 1514 1512 1514 1516 1518 1518 1519 1518 1522 1525 1527 1528
1477 1473 1467 1466 1467 1470 1472 1474 1475 1476 1477 1479 1482 1484 1486 1492 1493 1489 1489 1492 1494 1498 1502 1505 1507 1510 1509 1509 1510 1512 1515 1515 1518 1517 1517 1516 1517 1517 1518 1519 1521 1522 1524 1526 1527
1478 1473 1470 1468 1469 1471 1473 1474 1475 1476 1478 1479 1483 1484 1489 1493 1491 1487 1489 1491 1493 1497 1501 1505 1506 1507 1505 1505 1509 1507 1515 1519 1521 1519 1519 1519 1518 1516 1517 1519 1520 1521 1522 1524 1526
1483 1478 1475 1473 1474 1475 1476 1477 1476 1477 1480 1480 1481 1487 1492 1493 1488 1487 1489 1491 1493 1497 1501 1504 1506 1506 1505 1507 1506 1510 1515 1520 1521 1521 1521 1520 1518 1519 1515 1517 1519 1520 1521 1523 1524
1488 1486 1481 1480 1480 1479 1480 1481 1482 1482 1481 1483 1484 1490 1493 1490 1488 1488 1489 1492 1494 1498 1502 1504 1504 1508 1507 1510 1511 1512 1516 1519 1522 1522 1522 1521 1516 1514 1514 1516 1518 1519 1521 1522 1523
1492 1490 1489 1487 1486 1485 1484 1485 1485 1485 1485 1486 1490 1492 1490 1487 1488 1489 1491 1493 1495 1498 1500 1502 1504 1507 1506 1509 1511 1509 1512 1515 1520 1522 1523 1522 1506 1509 1514 1515 1516 1517 1519 1519 1520
1494 1493 1492 1491 1489 1488 1487 1486 1487 1488 1490 1489 1490 1490 1488 1489 1491 1491 1493 1494 1496 1498 1501 1503 1505 1507 1509 1504 1506 1509 1504 1507 1519 1523 1522 1520 1506 1510 1513 1514 1514 1514 1515 1517 1518
1494 1494 1493 1492 1492 1491 1489 1488 1488 1489 1491 1491 1491 1493 1491 1493 1491 1492 1492 1495 1497 1499 1503 1504 1506 1503 1503 1499 1507 1503 1503 1506 1506 1522 1520 1516 1511 1508 1511 1511 1511 1511 1512 1515 1516
1494 1493 1493 1492 1492 1492 1491 1491 1493 1493 1490 1490 1490 1489 1491 1493 1492 1494 1494 1497 1499 1500 1499 1503 1505 1504 1500 1500 1497 1493 1496 1501 1513 1521 1521 1511 1508 1506 1506 1506 1508 1508 1510 1512 1514
1494 1493 1493 1492 1491 1491 1490 1490 1490 1492 1492 1491 1492 1492 1494 1494 1495 1495 1495 1499 1499 1499 1501 1502 1505 1510 1511 1507 1502 1502 1502 1505 1515 1519 1520 1507 1505 1500 1500 1504 1507 1507 1509 1511 1514
1495 1492 1493 1493 1492 1491 1492 1492 1492 1492 1490 1494 1494 1494 1494 1495 1496 1496 1497 1499 1499 1501 1500 1499 1513 1516 1511 1508 1505 1509 1505 1510 1516 1516 1516 1515 1494 1496 1502 1504 1508 1510 1510 1512 1514
1496 1494 1494 1494 1496 1494 1493 1492 1492 1491 1490 1498 1496 1497 1496 1495 1499 1498 1499 1502 1504 1504 1506 1512 1518 1515 1511 1514 1515 1510 1521 1520 1519 1516 1510 1514 1506 1487 1494 1501 1506 1508 1510 1512 1514
1496 1494 1494 1494 1494 1494 1495 1492 1492 1493 1501 1502 1500 1498 1497 1497 1500 1502 1501 1503 1504 1510 1512 1522 1518 1517 1514 1524 1522 1521 1525 1523 1523 1520 1524 1513 1522 1486 1497 1499 1500 1504 1508 1511 1514
1497 1494 1495 1494 1494 1494 1493 1493 1494 1497 1509 1505 1501 1499 1497 1498 1501 1503 1504 1503 1509 1510 1515 1522 1524 1524 1525 1527 1524 1526 1524 1524 1524 1524 1530 1518 1522 1497 1486 1496 1495 1501 1507 1511 1514
1499 1497 1494 1494 1494 1493 1493 1494 1497 1499 1507 1505 1503 1501 1499 1502 1503 1504 1504 1505 1506 1522 1527 1519 1525 1528 1528 1524 1527 1526 1525 1522 1527 1528 1514 1532 1528 1491 1493 1497 1498 1500 1505 1509 1512
1500 1497 1495 1494 1493 1493 1493 1495 1501 1507 1505 1507 1504 1501 1503 1505 1507 1505 1504 1506 1513 1509 1510 1517 1530 1527 1530 1528 1524 1525 1524 1518 1523 1511 1504 1529 1512 1492 1497 1499 1500 1501 1504 1509 1511
1499 1499 1497 1495 1493 1493 1496 1502 1509 1505 1508 1503 1503 1498 1504 1504 1504 1503 1506 1507 1514 1515 1509 1512 1523 1531 1531 1530 1530 1525 1526 1527 1523 1523 1520 1495 1492 1493 1498 1500 1502 1504 1507 1510 1512
1498 1499 1499 1496 1494 1495 1497 1509 1511 1515 1513 1509 1500 1502 1498 1503 1504 1503 1507 1516 1516 1519 1518 1510 1521 1530 1532 1532 1532 1529 1530 1525 1525 1524 1513 1490 1494 1494 1501 1501 1503 1506 1508 1509 1509
1498 1499 1499 1496 1496 1497 1502 1511 1514 1515 1514 1511 1507 1505 1504 1504 1505 1506 1510 1519 1519 1518 1517 1516 1512 1531 1531 1529 1520 1530 1526 1527 1526 1519 1510 1499 1494 1495 1504 1500 1501 1502 1504 1505 1506
1500 1501 1500 1496 1499 1499 1505 1510 1514 1515 1514 1513 1512 1511 1509 1511 1509 1510 1511 1516 1521 1520 1516 1519 1513 1519 1519 1529 1530 1527 1520 1517 1520 1514 1518 1520 1508 1495 1498 1502 1504 1503 1504 1505 1505
1503 1503 1501 1496 1499 1505 1514 1515 1516 1515 1516 1514 1513 1514 1513 1511 1512 1513 1516 1523 1523 1522 1519 1519 1515 1516 1521 1529 1530 1526 1520 1519 1522 1525 1517 1513 1495 1497 1497 1499 1501 1502 1502 1501 1502
1508 1505 1506 1504 1508 1508 1510 1515 1516 1519 1518 1518 1517 1517 1515 1514 1516 1516 1519 1524 1525 1525 1525 1524 1516 1510 1504 1508 1509 1518 1518 1519 1518 1521 1506 1499 1490 1489 1490 1494 1497 1500 1499 1499 1500
1510 1517 1516 1510 1512 1513 1513 1515 1516 1517 1519 1519 1518 1518 1518 1516 1517 1518 1521 1524 1525 1526 1526 1525 1519 1519 1519 1514 1516 1514 1511 1514 1517 1506 1503 1489 1489 1485 1491 1497 1500 1501 1500 1499 1498
1515 1516 1518 1519 1519 1515 1516 1516 1515 1518 1519 1519 1519 1520 1519 1517 1518 1517 1519 1521 1519 1527 1525 1526 1520 1522 1516 1509 1513 1514 1508 1506 1503 1504 1503 1500 1496 1495 1501 1502 1502 1502 1502 1500 1498
1518 1517 1516 1518 1517 1516 1519 1520 1520 1521 1521 1520 1519 1518 1518 1521 1522 1522 1522 1522 1522 1521 1522 1523 1520 1520 1510 1512 1509 1501 1492 1493 1496 1497 1498 1499 1495 1501 1502 1503 1505 1505 1503 1501 1499